Location: Fredericksburg
(30.2750°N, 98.8720°W)
Time: 02:25:36
(UTC-05:00)

Daily predictions for brighter satellites

Satellite Brightness Start Highest point End
(mag) Time Altitude Azimuth Time Altitude Azimuth Time Altitude Azimuth
CZ-4C R/B 4.1 04:46:34 35° SSE 04:46:34 35° SSE 04:50:48 10° SSE
Milstar 3 3.2 05:01:35 54° SE 05:01:35 54° SE 05:06:56 10° ESE
USA 267 4.3 05:14:16 10° ESE 05:20:13 39° NE 05:23:31 24° N
Cosmos 2219 3.4 05:31:24 45° N 05:33:00 65° ENE 05:38:33 10° SSE
Meteor 1-31 Rocket 4.5 05:32:38 10° NE 05:36:03 31° E 05:38:11 18° SSE
OAO 2 Rocket 3.6 05:37:46 64° ESE 05:37:46 64° ESE 05:42:00 10° ESE
Cosmos 2181 Rocket 3.8 05:38:36 63° SSW 05:39:37 77° W 05:45:47 10° N
Cosmos 1295 Rocket 4.5 05:35:30 10° N 05:41:52 86° E 05:48:12 10° S
NOSS 2-3 (C) 4.0 05:42:57 62° SE 05:43:20 65° ESE 05:48:14 10° NE
Cosmos 2341 Rocket 3.9 05:41:16 10° N 05:47:39 75° W 05:53:58 10° S
ERBS 4.0 05:49:43 32° ESE 05:49:43 32° ESE 05:51:47 10° SE
USA 81 3.9 05:51:54 10° S 05:57:09 78° W 06:02:26 10° N
Okean O Rocket 3.3 05:54:30 10° N 05:56:09 22° N 05:56:09 22° N
CZ-4B DEB 4.1 05:55:06 10° N 06:00:33 67° WNW 06:06:02 10° SSW
Meteor 1-16 Rocket 4.2 05:56:46 10° NNW 06:02:29 64° W 06:08:18 10° S
PAYLOAD B 4.2 06:00:30 10° N 06:05:53 56° WNW 06:09:35 20° SW
CZ-4B R/B 3.1 06:01:23 10° N 06:06:51 65° WNW 06:12:23 10° SSW
Cosmos 2369 3.5 06:02:26 12° SSW 06:07:42 81° WNW 06:13:22 10° NNE
Cosmos 1269 Rocket 3.9 06:02:53 10° NNW 06:08:12 88° WSW 06:13:30 10° SSE
Meteor 2-21 4.4 06:04:46 10° NNW 06:10:42 58° W 06:16:41 10° S
GPS 2-04 Rocket1 4.5 06:20:02 18° SSW 06:20:02 18° SSW 06:22:06 10° S
Okean-O 3.4 06:17:24 10° NNE 06:21:44 54° E 06:26:03 10° S
Meteor 2-1 Rocket 4.4 06:16:37 10° N 06:22:31 81° E 06:28:14 10° S
Cosmos 1842 Rocket 3.4 06:18:43 10° N 06:23:03 87° W 06:27:22 10° S
Chunghua 1 4.5 06:22:43 46° WSW 06:23:46 83° NNW 06:27:39 10° ENE
Cosmos 1674 2.5 06:20:45 10° S 06:24:27 87° E 06:28:10 10° N
Meteor 2-8 Rocket 4.3 06:19:34 10° S 06:25:42 81° W 06:31:50 10° N
NOSS 2-3 (D) 4.0 06:24:12 32° WSW 06:25:54 47° WNW 06:30:46 10° NNE
Cosmos 2366 rocket 3.9 06:19:58 10° N 06:26:08 80° W 06:32:20 10° S
OAO 3 Copernicus 4.4 06:26:57 31° W 06:29:12 61° NNW 06:34:11 10° ENE
Meteor 2-14 Rocket 4.5 06:23:25 10° NNW 06:29:16 52° W 06:35:08 10° SSW
Cosmos 2278 3.8 06:24:42 10° SW 06:30:09 52° WNW 06:35:40 10° N
CZ-4C R/B 4.4 06:31:53 16° WSW 06:31:53 16° WSW 06:35:13 10° SW
SWAS 4.4 06:28:40 17° NNW 06:31:51 60° WSW 06:36:05 10° S
Cosmos 1076 Rocket 4.4 06:28:11 10° S 06:32:23 52° E 06:36:36 10° NNE
Meteor 2-16 Rocket 4.5 06:30:23 10° NNW 06:36:22 55° W 06:42:18 10° SSW
SL-8 Rocket 4.2 06:30:56 10° NNW 06:36:54 45° W 06:42:50 10° SSW
USA 116 3.5 06:39:06 10° S 06:42:39 73° WSW 06:46:43 10° NNW
NOAA 6 4.0 06:37:46 10° NNE 06:42:56 86° WNW 06:48:04 10° SSW
Cosmos 2227 Rocket 2.2 06:38:14 10° NNW 06:43:55 85° WSW 06:49:35 10° SSE
CZ-3 R/B 3.7 06:29:29 19° W 06:46:12 41° SW 06:53:33 10° SSE
IDEFIX/ARIANE 42P 3.2 06:42:19 10° NNE 06:47:28 59° E 06:52:33 10° S
ATLAS 2AS CENTAUR R/B 3.0 06:44:22 10° SW 06:51:51 70° WNW 06:59:54 10° NNE
SKYMED 2 3.9 06:49:34 10° SSE 06:53:52 71° ENE 06:58:11 10° N
Okean 3 Rocket 3.5 06:51:09 10° SSW 06:55:34 64° W 06:59:59 10° N
Cosmos 1766 Rocket 4.3 06:51:53 10° S 06:56:06 58° E 07:00:23 10° NNE
Cosmos 1656 4.3 06:52:42 10° SW 06:57:50 34° WNW 07:02:59 10° N
Cosmos 1818 3.8 06:53:06 10° SW 06:58:20 50° WNW 07:03:35 10° NNE
CZ-2C R/B 4.2 06:55:03 10° S 06:59:30 40° W 07:03:56 10° NNW
Cosmos 2360 4.4 06:55:29 10° SSW 07:01:08 77° ESE 07:06:50 10° NNE
SL-14 R/B 3.5 06:58:05 10° S 07:01:58 72° E 07:05:49 10° N
GP-B 4.1 06:58:13 10° SSE 07:02:30 51° E 07:06:47 10° N
USA 267 3.6 06:56:48 10° SSE 07:03:02 48° SW 07:09:19 10° NW
Cosmos 2251 Rocket 3.7 06:58:05 10° NNW 07:03:29 85° ENE 07:08:50 10° SSE
Cosmos 2344 3.6 06:58:05 10° SW 07:05:41 60° WNW 07:13:38 10° NNE
Cosmos 2098 4.3 07:03:03 10° N 07:06:50 75° W 07:09:54 10° S
KORONAS-FOTON 4.5 07:05:18 10° SW 07:08:41 31° W 07:12:05 10° NNW
Cosmos 2297 Rocket 2.5 07:15:25 10° NNW 07:20:47 46° WSW 07:26:08 10° S
Cosmos 1697 Rocket 3.4 07:16:00 10° SW 07:21:02 33° WNW 07:26:05 10° N
ATLAS 3B R/B 4.2 07:15:36 10° N 07:21:34 34° NE 07:27:22 10° ESE
